Location: Iesi
(43.5167°N, 13.2333°E)
Time: 03:35:13
(UTC+00:00)

Meteor 2-11 Rocket - Pass Details

Date: 08 August 2020
Orbit: 940 x 956 km, 82.5° (Epoch: 27 September)

Event Time Altitude Azimuth Distance (km) Brightness Sun altitude
Exits shadow 22:51:20 76° 39° (NE) 975 4.4 -30.5°
Drops below altitude 10° 22:57:00 10° 10° (N) 2,675 7.6 -30.6°
Sets 22:59:30 0° 10° (N) 3,626 8.6 -30.6°
